Location: Białystok
(53.1343°N, 23.1544°E)
Time: 23:39:52
(UTC+01:00)

ISS - Pass Details

Date: 27 January 2019
Orbit: 403 x 411 km, 51.6° (Epoch: 18 February)

Event Time Altitude Azimuth Distance (km) Brightness Sun altitude
Rises 16:47:53 0° 212° (SSW) 2,324 1.0 -7.1°
Reaches altitude 10° 16:50:21 10° 194° (SSW) 1,469 -0.5 -7.5°
Maximum altitude 16:52:46 19° 146° (SSE) 1,046 -1.9 -7.8°
Drops below altitude 10° 16:55:12 10° 99° (E) 1,479 -1.5 -8.2°
Enters shadow 16:55:27 - 96° (E) 1,560 -1.4 -8.2°
